Weerstation Grootegast  Weerstation Grootegast


15 daagse weersverwachting Bodø (NO)

  • Overzicht
  • Per uur
  • 15 dagen
  • Extra
  • Vergelijk
  • Kaarten
  • Dagkaart
  • Meer »
  • Info
  • Statistieken
  • Directe link
    Temp 6h Neerslag Wind  
 06:19     19:56    Daglengte: 13:37 Vandaag
08:00
-1°
0.3 mm
3
warningclass
14:00
 
5
20:00
 
7
 06:15     19:59    Daglengte: 13:44 Morgen
02:00
7.9 mm
14
warningclass
08:00
15.1 mm
15
warningclass
14:00
15.7 mm
15
warningclass
20:00
15.2 mm
14
 06:11     20:03    Daglengte: 13:52 Woensdag 01 Apr
02:00
16.8 mm
11
08:00
3.7 mm
7
14:00
37.6 mm
4
20:00
40.0 mm
3
warningclass
 06:07     20:06    Daglengte: 13:59 Donderdag 02 Apr
02:00
-1°
22.1 mm
4
warningclass
Locatie info
Region: Nordland
Latitude: 67.2860°N
Longitude: 14.3998°E
22 masl
Postcode: 8006
Temp/Neerslag /Baro Onweer/DauwpuntSneeuw
    Temp Baro 1h Neerslag Dauwpunt Wind UV BewolkingSneeuw  
 06:19     19:56    Daglengte: 13:37 Vandaag
06:00
-2°
Voelt als: -5.2°
1025.8 hPa
82%
-6.2°
2
Windvlaag: 2.9 m/s
55%1 cm
07:00
-1°
Voelt als: -6.1°
1026.0 hPa 0.3 mm
82%
-7.5°
4
Windvlaag: 4.8 m/s
52%1 cm warningclass
08:00
-1°
Voelt als: -5.3°
1026.1 hPa
81%
-7.2°
3
Windvlaag: 4.6 m/s
51%1 cm
09:00
-1°
Voelt als: -5.1°
1026.3 hPa
81%
-7.1°
4
Windvlaag: 4.1 m/s
61%1 cm
10:00
-0°
Voelt als: -4.5°
1026.5 hPa
82%
-6.8°
4
Windvlaag: 3.5 m/s
61%2 cm
11:00
-0°
Voelt als: -4.1°
1026.7 hPa
82%
-6.8°
4
Windvlaag: 3.6 m/s
58%2 cm
12:00
Voelt als: -4.0°
1026.7 hPa
82%
-6.9°
4
Windvlaag: 4 m/s
51%2 cm
13:00
Voelt als: -4.3°
1026.3 hPa
82%
-7.5°
4
Windvlaag: 5 m/s
36%2 cm
14:00
Voelt als: -4.4°
1025.9 hPa
72%
-6.7°
5
Windvlaag: 6.6 m/s
31%2 cm
15:00
Voelt als: -4.5°
1025.0 hPa
73%
-6.5°
6
Windvlaag: 7.8 m/s
56%2 cm
16:00
Voelt als: -5.0°
1024.2 hPa
81%
-5.2°
7
Windvlaag: 8.9 m/s
61%2 cm
17:00
Voelt als: -5.2°
1023.1 hPa
80%
-5.2°
7
Windvlaag: 10.1 m/s
82%2 cm
18:00
Voelt als: -5.3°
1021.8 hPa
70%
-5.2°
7
Windvlaag: 10.9 m/s
85%2 cm
19:00
Voelt als: -5.5°
1020.2 hPa
64%
-4.8°
8
Windvlaag: 11.2 m/s
80%2 cm
20:00
Voelt als: -5.6°
1018.3 hPa
25%
-4.5°
7
Windvlaag: 10.9 m/s
91%2 cm
21:00
Voelt als: -5.5°
1016.2 hPa
17%
-4.6°
6
Windvlaag: 10.5 m/s
91%2 cm
22:00
Voelt als: -5.4°
1013.8 hPa
23%
-4.0°
8
Windvlaag: 10.7 m/s
91%2 cm
23:00
Voelt als: -5.4°
1010.9 hPa 0.6 mm
82%
-2.6°
10
Windvlaag: 13.5 m/s
91%2 cm warningclass
 06:15     19:59    Daglengte: 13:44 Morgen
00:00
Voelt als: -5.6°
1008.8 hPa 1.3 mm
82%
-0.8°
12
Windvlaag: 17.6 m/s
91%2 cm warningclass
01:00
Voelt als: -5.6°
1006.9 hPa 2.7 mm
82%
0.8°
13
Windvlaag: 19.6 m/s
91%2 cm warningclass
02:00
Voelt als: -3.7°
1004.6 hPa 3.3 mm
82%
2.6°
14
Windvlaag: 20.5 m/s
91%2 cm warningclass
03:00
Voelt als: -3.0°
1002.8 hPa 2.8 mm
82%
3.0°
15
Windvlaag: 19.9 m/s
91%3 cm warningclass
04:00
Voelt als: -2.8°
1001.1 hPa 2.4 mm
82%
2.9°
14
Windvlaag: 20.2 m/s
91%3 cm warningclass
05:00
Voelt als: -2.9°
999.2 hPa 2.2 mm
82%
3.1°
15
Windvlaag: 20.8 m/s
91%3 cm warningclass
06:00
Voelt als: -3.0°
997.4 hPa 2.8 mm
82%
3.1°
16
Windvlaag: 22.5 m/s
91%3 cm warningclass
07:00
Voelt als: -2.9°
995.6 hPa 2.8 mm
82%
3.1°
15
Windvlaag: 20.6 m/s
91%3 cm warningclass
08:00
Voelt als: -2.8°
994.8 hPa 2.2 mm
82%
2.3°
15
Windvlaag: 19.5 m/s
90%3 cm warningclass
09:00
Voelt als: -3.3°
994.9 hPa 2.0 mm
82%
2.9°
15
Windvlaag: 18.9 m/s
84%3 cm warningclass
10:00
Voelt als: -2.7°
994.4 hPa 1.9 mm
82%
0.2°
13
Windvlaag: 17.2 m/s
77%3 cm warningclass
11:00
Voelt als: -3.5°
994.3 hPa 2.9 mm
82%
0.4°
14
Windvlaag: 18 m/s
83%3 cm warningclass
12:00
Voelt als: -3.8°
994.2 hPa 3.0 mm
82%
-0.5°
14
Windvlaag: 18.8 m/s
84%3 cm warningclass
13:00
Voelt als: -4.3°
993.5 hPa 3.0 mm
82%
-0.9°
14
Windvlaag: 18.8 m/s
75%3 cm warningclass
14:00
Voelt als: -4.5°
992.6 hPa 2.9 mm
82%
-0.7°
15
Windvlaag: 19.9 m/s
84%3 cm warningclass
15:00
Voelt als: -4.4°
990.8 hPa 2.0 mm
82%
-0.0°
15
Windvlaag: 20.9 m/s
91%3 cm warningclass
16:00
Voelt als: -3.9°
988.7 hPa 2.5 mm
82%
2.4°
16
Windvlaag: 23.7 m/s
91%3 cm warningclass
17:00
Voelt als: -2.5°
987.8 hPa 2.8 mm
82%
2.5°
14
Windvlaag: 22.2 m/s
84%3 cm warningclass
18:00
Voelt als: -2.6°
988.4 hPa 2.8 mm
82%
2.3°
14
Windvlaag: 16.4 m/s
88%3 cm
19:00
Voelt als: -2.5°
988.4 hPa 2.5 mm
82%
2.0°
15
Windvlaag: 15.8 m/s
78%4 cm
20:00
Voelt als: -2.9°
989.2 hPa 2.5 mm
82%
1.2°
14
Windvlaag: 16.7 m/s
84%4 cm
21:00
Voelt als: -3.3°
990.3 hPa 2.5 mm
82%
2.1°
13
Windvlaag: 17 m/s
75%4 cm
22:00
Voelt als: -3.5°
991.6 hPa 2.7 mm
82%
1.3°
13
Windvlaag: 18.2 m/s
82%4 cm warningclass
23:00
Voelt als: -3.9°
993.5 hPa
100%
-0.7°
14
Windvlaag: 17.7 m/s
88%4 cm warningclass
 06:11     20:03    Daglengte: 13:52 Woensdag 01 Apr
00:00
Voelt als: -4.0°
995.0 hPa 3.8 mm
100%
-2.1°
13
Windvlaag: 18.3 m/s
84%4 cm warningclass
01:00
Voelt als: -4.5°
996.4 hPa 4.0 mm
100%
-0.7°
13
Windvlaag: 15.5 m/s
87%4 cm
02:00
Voelt als: -4.9°
997.5 hPa 3.8 mm
100%
0.2°
11
Windvlaag: 16.4 m/s
97%4 cm
03:00
Voelt als: -4.3°
998.2 hPa 3.7 mm
100%
-1.1°
10
Windvlaag: 14.9 m/s
85%4 cm
04:00
Voelt als: -4.3°
998.3 hPa
53%
-2.8°
11
Windvlaag: 12 m/s
89%4 cm
05:00
Voelt als: -4.8°
998.7 hPa
52%
-0.6°
8
Windvlaag: 11.7 m/s
82%4 cm
06:00
Voelt als: -5.6°
999.0 hPa
94%
-1.4°
10
Windvlaag: 12.5 m/s
74%4 cm
07:00
Voelt als: -4.5°
999.4 hPa
99%
-1.3°
8
Windvlaag: 12.2 m/s
45%4 cm
08:00
Voelt als: -3.8°
999.7 hPa
100%
-4.5°
7
Windvlaag: 8.7 m/s
43%4 cm
09:00
Voelt als: -3.7°
999.4 hPa 6.1 mm
100%
-4.5°
6
Windvlaag: 13.1 m/s
44%4 cm
10:00
Voelt als: -3.5°
999.6 hPa 6.2 mm
100%
-4.0°
6
Windvlaag: 13 m/s
44%4 cm
11:00
Voelt als: -3.0°
999.8 hPa 6.2 mm
100%
-3.6°
5
Windvlaag: 14.8 m/s
38%4 cm
12:00
Voelt als: -2.7°
999.8 hPa 6.3 mm
100%
-3.3°
5
Windvlaag: 14.5 m/s
43%4 cm
13:00
Voelt als: -2.5°
999.6 hPa 6.4 mm
100%
-2.9°
5
Windvlaag: 16.5 m/s
68%4 cm
14:00
Voelt als: -2.1°
999.6 hPa 6.5 mm
100%
-2.6°
4
Windvlaag: 1.7 m/s
65%4 cm
15:00
Voelt als: -1.9°
999.3 hPa 6.7 mm
100%
-2.6°
3
Windvlaag: 11.9 m/s
68%4 cm
16:00
Voelt als: -2.5°
998.9 hPa 6.9 mm
100%
-2.7°
4
Windvlaag: 10 m/s
52%4 cm
17:00
Voelt als: -3.0°
998.7 hPa 6.7 mm
100%
-2.8°
5
Windvlaag: 9.6 m/s
59%4 cm
18:00
Voelt als: -2.9°
998.4 hPa 6.5 mm
100%
-2.8°
4
Windvlaag: 9.1 m/s
43%4 cm
19:00
Voelt als: -2.7°
998.1 hPa 6.5 mm
100%
-2.9°
4
Windvlaag: 8.9 m/s
53%4 cm warningclass
20:00
Voelt als: -2.5°
997.8 hPa 6.6 mm
99%
-2.8°
3
Windvlaag: 0.9 m/s
68%4 cm warningclass
21:00
Voelt als: -2.7°
997.3 hPa
85%
-2.8°
3
Windvlaag: 6.8 m/s
49%5 cm
22:00
Voelt als: -2.9°
996.8 hPa
85%
-2.9°
3
Windvlaag: 7.5 m/s
52%5 cm
23:00
Voelt als: -3.2°
996.2 hPa
100%
-3.1°
3
Windvlaag: 5.6 m/s
45%5 cm
 06:07     20:06    Daglengte: 13:59 Donderdag 02 Apr
00:00
-0°
Voelt als: -3.7°
995.6 hPa 7.4 mm
100%
-3.2°
3
Windvlaag: 4.5 m/s
67%5 cm warningclass
01:00
-0°
Voelt als: -4.2°
994.8 hPa 7.4 mm
100%
-3.0°
3
Windvlaag: 4.6 m/s
54%5 cm warningclass
02:00
-1°
Voelt als: -5.1°
994.1 hPa 7.4 mm
100%
-3.1°
4
Windvlaag: 0.9 m/s
53%5 cm warningclass
03:00
-1°
Voelt als: -5.3°
993.1 hPa 21.9 mm
100%
-3.2°
4
Windvlaag: 6.2 m/s
81%5 cm warningclass
04:00
-1°
Voelt als: -5.6°
992.1 hPa 21.9 mm
100%
-3.5°
4
Windvlaag: 6 m/s
83%5 cm warningclass
05:00
-1°
Voelt als: -5.8°
991.1 hPa 21.9 mm
100%
-3.4°
4
Windvlaag: 5.3 m/s
87%5 cm warningclass
Temp/Neerslag /Baro Onweer/DauwpuntSneeuw
    Temp Baro Neerslag Dauwpunt Wind BewolkingSneeuw  
 06:19     19:56    Daglengte: 13:37 Vandaag
08:00
-1°
Voelt als: -5.3°
1026.1 hPa 0.3 mm -7.2°
3
51%1 cm warningclass
11:00
-0°
Voelt als: -4.1°
1026.7 hPa   -6.8°
4
58%2 cm
14:00
Voelt als: -4.4°
1025.9 hPa   -6.7°
5
31%2 cm
17:00
Voelt als: -5.2°
1023.1 hPa   -5.2°
7
82%2 cm
20:00
Voelt als: -5.6°
1018.3 hPa   -4.5°
7
91%2 cm
23:00
Voelt als: -5.4°
1010.9 hPa 0.6 mm -2.6°
10
91%2 cm warningclass
 06:15     19:59    Daglengte: 13:44 Morgen
02:00
Voelt als: -3.7°
1004.6 hPa 7.3 mm 2.6°
14
91%2 cm warningclass
05:00
Voelt als: -2.9°
999.2 hPa 7.3 mm 3.1°
15
91%3 cm warningclass
08:00
Voelt als: -2.8°
994.8 hPa 7.8 mm 2.3°
15
90%3 cm warningclass
11:00
Voelt als: -3.5°
994.3 hPa 6.8 mm 0.4°
14
83%3 cm warningclass
14:00
Voelt als: -4.5°
992.6 hPa 8.9 mm -0.7°
15
84%3 cm warningclass
17:00
Voelt als: -2.5°
987.8 hPa 7.4 mm 2.5°
14
84%3 cm warningclass
20:00
Voelt als: -2.9°
989.2 hPa 7.8 mm 1.2°
14
84%4 cm
23:00
Voelt als: -3.9°
993.5 hPa 5.2 mm -0.7°
14
88%4 cm warningclass
 06:11     20:03    Daglengte: 13:52 Woensdag 01 Apr
02:00
Voelt als: -4.9°
997.5 hPa 11.6 mm 0.2°
11
97%4 cm
05:00
Voelt als: -4.8°
998.7 hPa 3.7 mm -0.6°
8
82%4 cm
08:00
Voelt als: -3.8°
999.7 hPa   -4.5°
7
43%4 cm
11:00
Voelt als: -3.0°
999.8 hPa 18.5 mm -3.6°
5
38%4 cm
14:00
Voelt als: -2.1°
999.6 hPa 19.2 mm -2.6°
4
65%4 cm
17:00
Voelt als: -3.0°
998.7 hPa 20.4 mm -2.8°
5
59%4 cm
20:00
Voelt als: -2.5°
997.8 hPa 19.6 mm -2.8°
3
68%4 cm warningclass
23:00
Voelt als: -3.2°
996.2 hPa   -3.1°
3
45%5 cm
 06:07     20:06    Daglengte: 13:59 Donderdag 02 Apr
02:00
-1°
Voelt als: -5.1°
994.1 hPa 22.1 mm -3.1°
4
53%5 cm warningclass
05:00
-1°
Voelt als: -5.8°
991.1 hPa 65.6 mm -3.4°
4
87%5 cm warningclass
08:00
-1°
Voelt als: -6.2°
988.1 hPa 67.1 mm -4.0°
5
94%6 cm warningclass
11:00
Voelt als: -4.2°
983.4 hPa 35.5 mm -3.3°
5
90%
14:00
Voelt als: -2.9°
980.7 hPa 35.5 mm -3.0°
5
92%
17:00
Voelt als: -2.8°
977.8 hPa 35.5 mm -2.9°
5
92%
20:00
Voelt als: -2.9°
974.9 hPa 35.5 mm -2.9°
4
92%
23:00
Voelt als: -3.0°
973.2 hPa 35.5 mm -2.5°
4
92%
 06:03     20:10    Daglengte: 14:07 Vrijdag 03 Apr
02:00
Voelt als: -2.8°
971.5 hPa 35.5 mm -2.3°
3
92%
05:00
Voelt als: -3.1°
971.0 hPa 35.5 mm -2.5°
3
92%
08:00
Voelt als: -3.3°
970.6 hPa 35.5 mm -2.6°
3
92%
11:00
Voelt als: -3.3°
972.6 hPa 35.5 mm -2.5°
4
92%
14:00
Voelt als: -3.0°
974.6 hPa 35.5 mm -2.3°
5
92%
17:00
Voelt als: -3.3°
977.8 hPa 35.5 mm -1.9°
6
91%
20:00
Voelt als: -3.8°
981.0 hPa 37.1 mm -1.2°
6
89%
23:00
Voelt als: -4.5°
983.8 hPa 38.8 mm -1.6°
6
89%
 05:59     20:13    Daglengte: 14:14 Zaterdag 04 Apr
02:00
Voelt als: -5.1°
986.7 hPa 40.5 mm -2.1°
7
88%
05:00
Voelt als: -5.0°
988.7 hPa 42.5 mm -2.4°
7
82%
08:00
Voelt als: -5.0°
990.7 hPa 44.2 mm -2.8°
6
75%
11:00
Voelt als: -5.1°
993.9 hPa 45.0 mm -3.1°
7
74%
14:00
Voelt als: -5.1°
997.0 hPa 45.9 mm -3.5°
7
74%
17:00
Voelt als: -4.8°
998.7 hPa 47.0 mm -3.5°
6
81%
20:00
Voelt als: -4.3°
1000.5 hPa 48.0 mm -3.6°
5
89%
23:00
-0°
Voelt als: -5.2°
1000.5 hPa 49.1 mm -3.9°
5
89%
 05:55     20:17    Daglengte: 14:22 Zondag 05 Apr
02:00
-0°
Voelt als: -5.9°
1000.5 hPa 49.7 mm -4.1°
6
89%
05:00
-1°
Voelt als: -6.1°
1001.3 hPa 50.0 mm -4.6°
6
89%
08:00
-1°
Voelt als: -6.4°
1001.8 hPa 50.1 mm -4.9°
5
90%
11:00
-0°
Voelt als: -5.8°
1002.6 hPa 50.3 mm -4.2°
7
90%
14:00
Voelt als: -4.8°
1003.4 hPa 53.8 mm -3.0°
7
90%
17:00
Voelt als: -4.4°
1002.7 hPa 56.2 mm -2.6°
7
90%
20:00
Voelt als: -3.7°
1002.6 hPa 57.3 mm -2.6°
5
90%
23:00
Voelt als: -3.9°
1004.8 hPa 58.5 mm -3.0°
5
90%
 05:51     20:20    Daglengte: 14:29 Maandag 06 Apr
02:00
Voelt als: -3.9°
1006.8 hPa 59.8 mm -3.1°
5
89%
05:00
Voelt als: -3.9°
1008.6 hPa   -3.4°
5
84%
08:00
Voelt als: -4.0°
1010.4 hPa 121.0 mm -3.4°
5
78%
14:00
Voelt als: -2.9°
1010.4 hPa 122.1 mm -3.9°
4
89%
20:00
Voelt als: -4.2°
1012.9 hPa 123.2 mm -2.8°
6
61%
 05:46     20:24    Daglengte: 14:38 Dinsdag 07 Apr
02:00
Voelt als: -4.3°
1013.3 hPa 123.5 mm -2.7°
5
89%
08:00
Voelt als: -4.4°
1016.4 hPa 123.5 mm -3.8°
4
85%
14:00
Voelt als: -1.6°
1017.0 hPa 123.5 mm -3.5°
3
84%
20:00
Voelt als: -2.9°
1008.3 hPa 124.0 mm -0.3°
7
92%
 05:42     20:28    Daglengte: 14:46 Woensdag 08 Apr
02:00
Voelt als: -2.7°
1013.8 hPa 124.2 mm -2.0°
4
91%
08:00
Voelt als: -3.5°
1014.7 hPa 124.2 mm -2.9°
4
91%
14:00
Voelt als: -1.0°
1016.5 hPa 124.3 mm -5.9°
2
1%
20:00
Voelt als: -2.3°
1016.1 hPa 124.3 mm -4.6°
3
1%
 05:38     20:31    Daglengte: 14:53 Donderdag 09 Apr
02:00
-2°
Voelt als: -4.3°
1015.1 hPa 0.8 mm -4.4°
2
52%
08:00
-0°
Voelt als: -3.4°
1013.9 hPa 0.5 mm -3.1°
3
53%
14:00
Voelt als: 0.1°
1013.5 hPa 0.5 mm -1.8°
2
49%
20:00
-0°
Voelt als: -2.4°
1013.2 hPa 0.6 mm -3.2°
2
50%
 05:34     20:35    Daglengte: 15:01 Vrijdag 10 Apr
02:00
-1°
Voelt als: -4.4°
1013.2 hPa 0.5 mm -4.1°
2
49%
08:00
-0°
Voelt als: -3.3°
1012.7 hPa 0.6 mm -3.4°
3
51%
14:00
Voelt als: 0.4°
1013.3 hPa 0.6 mm -1.2°
2
57%
20:00
Voelt als: -1.5°
1014.0 hPa 0.7 mm -2.5°
2
56%
 05:30     20:38    Daglengte: 15:08 Zaterdag 11 Apr
02:00
-0°
Voelt als: -3.9°
1015.4 hPa 0.5 mm -3.0°
3
49%
08:00
Voelt als: -3.1°
1015.6 hPa 0.8 mm -1.8°
4
59%
14:00
Voelt als: -0.7°
1016.2 hPa 0.7 mm -0.1°
3
58%
20:00
Voelt als: -2.0°
1016.3 hPa 0.8 mm -1.1°
4
55%
 05:26     20:42    Daglengte: 15:16 Zondag 12 Apr
02:00
Voelt als: -3.4°
1015.9 hPa 1.1 mm -1.7°
5
57%
08:00
Voelt als: -2.4°
1014.9 hPa 1.0 mm -1.1°
4
64%
14:00
Voelt als: -0.5°
1014.2 hPa 1.4 mm 1.0°
5
66%
20:00
Voelt als: -1.3°
1012.7 hPa 1.8 mm 0.5°
5
62%
 05:22     20:46    Daglengte: 15:24 Maandag 13 Apr
02:00
Voelt als: -1.7°
1012.7 hPa 1.7 mm 0.0°
4
60%
08:00
Voelt als: -0.8°
1012.0 hPa 0.8 mm 0.3°
4
61%
14:00
Voelt als: 1.4°
1011.4 hPa 0.9 mm 1.9°
3
58%
20:00
Voelt als: 1.6°
1010.5 hPa 1.0 mm 1.0°
2
59%
 05:17     20:50    Daglengte: 15:33 Dinsdag 14 Apr
02:00
Voelt als: -0.4°
1010.1 hPa 0.7 mm -0.6°
2
54%
  CAPE Lifted Index Hail Supercell Tornado SRH 3km CL BTM PRES CL TOP PRES Swiss DWD icon SMHI TS
 06:19     19:56    Daglengte: 13:37 Vandaag
06:00 11 J/kg 11.8 K 0 % 0 % 0 % 0 m²/s² 0 0 16.48 85
07:00 10 J/kg 12.6 K 0 % 0 % 0 % 0 m²/s² 0 0 17.58 85
08:00 10 J/kg 13.4 K 0 % 0 % 0 % 0 m²/s² 0 0 19.01 85
09:00 3 J/kg 13.9 K 0 % 0 % 0 % 0 m²/s² 0 0 19.54 85
10:00 22 J/kg 13.9 K 0 % 0 % 0 % 0 m²/s² 0 0 20.95 85
11:00 39 J/kg 13.8 K 0 % 0 % 0 % 0 m²/s² 0 0 21.54 85
12:00 39 J/kg 13.9 K 0 % 0 % 0 % 0 m²/s² 0 0 21.7 85
13:00 25 J/kg 14.1 K 0 % 0 % 0 % 0 m²/s² 0 0 21.6 85
14:00 32 J/kg 13.9 K 0 % 0 % 0 % 0 m²/s² 0 0 20.86 2
15:00 23 J/kg 13.7 K 0 % 0 % 0 % 0 m²/s² 0 0 18.35 85
16:00 43 J/kg 13.2 K 0 % 0 % 0 % 0 m²/s² 0 0 15.99 85
17:00 3 J/kg 14.2 K 0 % 0 % 0 % 0 m²/s² 0 0 16.6 85
18:00 4 J/kg 14.2 K 0 % 0 % 0 % 0 m²/s² 0 0 16.09 85
19:00 5 J/kg 14.8 K 0 % 0 % 0 % 0 m²/s² 0 0 15.49 3
20:00 0 J/kg 14.9 K 0 % 0 % 0 % 0 m²/s² 0 0 15.44 3
21:00 0 J/kg 13.5 K 0 % 0 % 0 % 0 m²/s² 0 0 14.13 3
22:00 0 J/kg 12.4 K 0 % 0 % 0 % 0 m²/s² 0 0 12.85 3
23:00 0 J/kg 12.0 K 0 % 0 % 0 % 0 m²/s² 0 0 12.51 71
 06:15     19:59    Daglengte: 13:44 Morgen
00:00 0 J/kg 11.8 K 0 % 0 % 0 % 0 m²/s² 0 0 12.28 73
01:00 0 J/kg 11.2 K 0 % 0 % 0 % 0 m²/s² 0 0 11.62 73
02:00 1 J/kg 11.0 K 0 % 0 % 0 % 0 m²/s² 0 0 11.54 63
03:00 12 J/kg 11.1 K 0 % 0 % 0 % 0 m²/s² 0 0 11.61 63
04:00 18 J/kg 11.1 K 0 % 0 % 0 % 0 m²/s² 0 0 11.61 61
05:00 24 J/kg 11.2 K 0 % 0 % 0 % 0 m²/s² 0 0 11.71 61
06:00 31 J/kg 10.2 K 0 % 0 % 0 % 0 m²/s² 0 0 10.71 80
07:00 45 J/kg 7.6 K 0 % 0 % 0 % 0 m²/s² 0 0 8.11 61
08:00 60 J/kg 5.3 K 0 % 0 % 0 % 0 m²/s² 0 0 5.84 61
09:00 58 J/kg 5.1 K 0 % 0 % 0 % 0 m²/s² 0 0 7.26 61
10:00 51 J/kg 6.3 K 0 % 0 % 0 % 0 m²/s² 0 0 9.21 80
11:00 33 J/kg 6.5 K 0 % 0 % 0 % 0 m²/s² 0 0 10.07 85
12:00 30 J/kg 6.2 K 0 % 0 % 0 % 0 m²/s² 0 0 10.16 85
13:00 61 J/kg 6.3 K 0 % 0 % 0 % 0 m²/s² 0 0 9.36 85
14:00 71 J/kg 6.5 K 0 % 0 % 0 % 0 m²/s² 0 0 8.66 85
15:00 63 J/kg 5.8 K 0 % 0 % 0 % 0 m²/s² 0 0 6.55 85
16:00 40 J/kg 4.3 K 0 % 0 % 0 % 0 m²/s² 0 0 4.72 85
17:00 113 J/kg 3.1 K 0 % 0 % 0 % 0 m²/s² 0 0 3.61 85
18:00 131 J/kg 2.9 K 0 % 0 % 0 % 0 m²/s² 0 0 3.41 85
19:00 94 J/kg 2.4 K 0 % 0 % 0 % 0 m²/s² 0 0 2.88 80
20:00 112 J/kg 2.5 K 0 % 0 % 0 % 0 m²/s² 0 0 3.04 85
21:00 108 J/kg 1.9 K 0 % 0 % 0 % 0 m²/s² 0 0 2.44 85
22:00 74 J/kg 2.1 K 0 % 0 % 0 % 0 m²/s² 0 0 2.67 85
23:00 57 J/kg 3.0 K 0 % 0 % 0 % 0 m²/s² 0 0 3.51 85
 06:11     20:03    Daglengte: 13:52 Woensdag 01 Apr
00:00 50 J/kg 3.4 K 0 % 0 % 0 % 0 m²/s² 0 0 3.91 85
01:00 42 J/kg 4.0 K 0 % 0 % 0 % 0 m²/s² 0 0 4.51 85
02:00 65 J/kg 3.6 K 0 % 0 % 0 % 0 m²/s² 0 0 4.17 85
03:00 55 J/kg 4.1 K 0 % 0 % 0 % 0 m²/s² 0 0 4.76 85
04:00 72 J/kg 4.1 K 0 % 0 % 0 % 0 m²/s² 0 0 4.76 3
05:00 64 J/kg 4.7 K 0 % 0 % 0 % 0 m²/s² 0 0 5.3 1
06:00 74 J/kg 4.3 K 0 % 0 % 0 % 0 m²/s² 0 0 4.96 1
07:00 90 J/kg 4.0 K 0 % 0 % 0 % 0 m²/s² 0 0 4.78 1
08:00 107 J/kg 4.2 K 0 % 0 % 0 % 0 m²/s² 0 0 5.22 2
09:00 115 J/kg 4.1 K 0 % 0 % 0 % 0 m²/s² 0 0 4.97 85
10:00 139 J/kg 3.8 K 0 % 0 % 0 % 0 m²/s² 0 0 4.61 85
11:00 110 J/kg 4.6 K 0 % 0 % 0 % 0 m²/s² 0 0 5.44 85
12:00 111 J/kg 4.6 K 0 % 0 % 0 % 0 m²/s² 0 0 5.32 85
13:00 93 J/kg 4.6 K 0 % 0 % 0 % 0 m²/s² 0 0 5.26 85
14:00 60 J/kg 5.3 K 0 % 0 % 0 % 0 m²/s² 0 0 6.11 85
15:00 106 J/kg 5.3 K 0 % 0 % 0 % 0 m²/s² 0 0 6.23 85
16:00 123 J/kg 4.9 K 0 % 0 % 0 % 0 m²/s² 0 0 6.01 85
17:00 114 J/kg 5.2 K 0 % 0 % 0 % 0 m²/s² 0 0 6.19 85
18:00 140 J/kg 5.1 K 0 % 0 % 0 % 0 m²/s² 0 0 6.45 85
19:00 141 J/kg 5.0 K 0 % 0 % 0 % 0 m²/s² 0 0 6.38 85
20:00 98 J/kg 5.3 K 0 % 0 % 0 % 0 m²/s² 0 0 6.02 85
21:00 64 J/kg 5.0 K 0 % 0 % 0 % 0 m²/s² 0 0 5.72 2
22:00 99 J/kg 4.7 K 0 % 0 % 0 % 0 m²/s² 0 0 5.84 2
23:00 72 J/kg 4.9 K 0 % 0 % 0 % 0 m²/s² 0 0 6.28 2
 06:07     20:06    Daglengte: 13:59 Donderdag 02 Apr
00:00 62 J/kg 5.3 K 0 % 0 % 0 % 0 m²/s² 0 0 7.52 85
01:00 72 J/kg 4.9 K 0 % 0 % 0 % 0 m²/s² 0 0 9.67 85
02:00 59 J/kg 4.9 K 0 % 0 % 0 % 0 m²/s² 0 0 8.65 85
03:00 107 J/kg 4.3 K 0 % 0 % 0 % 0 m²/s² 0 0 5.62
04:00 50 J/kg 4.7 K 0 % 0 % 0 % 0 m²/s² 0 0 7.31
05:00 81 J/kg 3.9 K 0 % 0 % 0 % 0 m²/s² 0 0 5.43
Temp Baro Wind Neerslag
  EWN Forecast EWN WRFDA DWD ICON FMI HIRLAM MET Norway GFS
 06:19     19:56    Daglengte: 13:37 Vandaag
08:00 -1.3° 1026.1 hPa 3.2 m/s 0.3 mm -3.4° 1023.7 hPa 1.9 m/s 2.5 mm -1.6° 1027.4 hPa 1.4 m/s 0.7 mm -0.8° 1026.0 hPa 5.3 m/s 0.0 mm -1.3° 1026.2 hPa 4.6 m/s -2.0° 1027.0 hPa 1.5 m/s
11:00 -0.1° 1026.7 hPa 3.6 m/s 0.0 mm -1.6° 1023.2 hPa 1.1 m/s 5.8 mm -1.1° 1027.8 hPa 2.8 m/s 0.8 mm -0.2° 1025.8 hPa 3.6 m/s 0.0 mm 0.2° 1027.2 hPa 3.7 m/s -1.7° 1026.6 hPa 4.0 m/s
14:00 0.3° 1025.9 hPa 4.9 m/s 0.0 mm 0.1° 1022.3 hPa 5.8 m/s 7.8 mm -0.7° 1026.4 hPa 6.2 m/s 0.8 mm 0.1° 1025.5 hPa 4.6 m/s 0.0 mm 1.0° 1026.4 hPa 4.8 m/s -0.4° 1025.5 hPa 6.1 m/s
17:00 0.6° 1023.1 hPa 7.3 m/s 0.0 mm 0.0° 1019.0 hPa 6.9 m/s 7.8 mm -0.1° 1024.0 hPa 7.8 m/s 1.5 mm 1.0° 1023.1 hPa 7.3 m/s 0.0 mm 0.9° 1023.3 hPa 6.8 m/s -0.2° 1022.7 hPa 6.5 m/s
20:00 0.4° 1018.3 hPa 7.3 m/s 0.0 mm -0.2° 1014.1 hPa 8.3 m/s 7.9 mm 0.2° 1018.0 hPa 3.5 m/s 0.2 mm 1.3° 1018.9 hPa 9.1 m/s 0.0 mm 0.0° 1019.0 hPa 6.5 m/s -1.6° 1018.7 hPa 5.8 m/s
23:00 1.2° 1010.9 hPa 9.7 m/s 0.6 mm 0.8° 1007.0 hPa 13.1 m/s 7.9 mm 0.1° 1010.5 hPa 5.3 m/s 0.2 mm 1.9° 1012.8 hPa 10.1 m/s 0.0 mm 1.0° 1011.4 hPa 9.1 m/s -1.9° 1012.6 hPa 9.3 m/s
 06:15     19:59    Daglengte: 13:44 Morgen
02:00 3.2° 1004.6 hPa 14.0 m/s 7.3 mm 2.0° 1000.7 hPa 13.0 m/s 9.8 mm 3.8° 1004.6 hPa 15.8 m/s 9.8 mm 2.2° 1006.5 hPa 12.6 m/s 0.0 mm 3.2° 1005.1 hPa 13.6 m/s -1.8° 1006.9 hPa 8.6 m/s
05:00 4.0° 999.2 hPa 15.4 m/s 7.3 mm 3.0° 994.7 hPa 14.3 m/s 18.5 mm 4.2° 999.3 hPa 13.9 m/s 6.9 mm 4.0° 1001.0 hPa 13.4 m/s 0.0 mm 3.7° 999.6 hPa 16.6 m/s 2.9° 999.7 hPa 15.4 m/s
08:00 4.1° 994.8 hPa 15.1 m/s 7.8 mm 3.2° 990.9 hPa 13.6 m/s 28.9 mm 4.0° 995.4 hPa 13.4 m/s 3.6 mm 3.9° 996.6 hPa 14.6 m/s 0.0 mm 4.0° 994.4 hPa 15.6 m/s 3.3° 995.0 hPa 16.1 m/s
11:00 3.4° 994.3 hPa 13.6 m/s 6.8 mm 2.1° 989.6 hPa 13.7 m/s 34.3 mm 3.3° 995.7 hPa 11.4 m/s 1.0 mm 3.9° 994.4 hPa 12.7 m/s 0.0 mm 3.1° 994.2 hPa 13.6 m/s 2.8° 993.0 hPa 13.7 m/s
14:00 2.8° 992.6 hPa 14.7 m/s 8.9 mm 1.5° 987.3 hPa 15.4 m/s 34.8 mm 1.9° 995.2 hPa 12.0 m/s 1.6 mm 3.0° 993.4 hPa 12.2 m/s 0.0 mm 2.7° 992.7 hPa 15.0 m/s 0.8° 990.5 hPa 15.8 m/s
17:00 4.1° 987.8 hPa 14.0 m/s 7.4 mm 2.4° 982.2 hPa 13.8 m/s 37.8 mm 3.7° 990.3 hPa 12.8 m/s 1.3 mm 4.1° 990.3 hPa 12.8 m/s 0.0 mm 4.2° 986.3 hPa 15.1 m/s 2.4° 985.0 hPa 17.7 m/s
20:00 3.9° 989.2 hPa 14.3 m/s 7.8 mm 3.3° 980.1 hPa 11.1 m/s 45.5 mm 2.9° 992.6 hPa 12.8 m/s 1.4 mm 4.5° 989.1 hPa 10.2 m/s 0.0 mm 4.0° 987.9 hPa 18.0 m/s 3.1° 983.6 hPa 15.4 m/s
23:00 3.0° 993.5 hPa 13.6 m/s 5.2 mm 2.1° 985.3 hPa 14.3 m/s 50.1 mm 2.5° 997.0 hPa 9.9 m/s 0.6 mm 3.2° 992.9 hPa 15.3 m/s 2.4° 987.7 hPa 18.1 m/s
 06:11     20:03    Daglengte: 13:52 Woensdag 01 Apr
02:00 1.8° 997.5 hPa 10.9 m/s 11.6 mm 1.0° 989.6 hPa 13.9 m/s 51.7 mm 2.0° 999.1 hPa 8.0 m/s 1.0 mm 1.6° 997.6 hPa 11.3 m/s 1.6° 992.1 hPa 16.2 m/s
05:00 1.3° 998.7 hPa 8.2 m/s 3.7 mm 0.9° 991.1 hPa 10.8 m/s 52.0 mm 1.6° 999.4 hPa 8.5 m/s 0.2 mm 1.0° 999.1 hPa 6.2 m/s 1.7° 993.4 hPa 12.7 m/s
08:00 1.7° 999.7 hPa 7.2 m/s 0.0 mm 1.0° 991.8 hPa 10.6 m/s 53.5 mm 0.6° 999.7 hPa 7.2 m/s 0.1 mm 1.8° 1000.5 hPa 5.5 m/s 1.7° 994.2 hPa 10.2 m/s
11:00 1.7° 999.8 hPa 5.5 m/s 18.5 mm 1.4° 993.3 hPa 11.0 m/s 54.5 mm 0.6° 1000.2 hPa 5.7 m/s 0.4 mm 2.3° 1000.7 hPa 4.2 m/s 1.5° 995.4 hPa 10.2 m/s
14:00 1.8° 999.6 hPa 4.0 m/s 19.2 mm 0.8° 994.1 hPa 8.5 m/s 55.9 mm 0.6° 999.4 hPa 4.3 m/s 0.8 mm 2.8° 1000.9 hPa 2.8 m/s 1.4° 995.9 hPa 11.8 m/s
17:00 1.5° 998.7 hPa 5.0 m/s 20.4 mm 1.1° 994.1 hPa 8.5 m/s 57.4 mm 0.6° 998.6 hPa 7.7 m/s 1.9 mm 2.1° 999.6 hPa 2.2 m/s 1.2° 995.9 hPa 9.4 m/s
20:00 0.9° 997.8 hPa 3.1 m/s 19.6 mm -0.2° 993.9 hPa 4.7 m/s 58.0 mm 0.7° 997.9 hPa 4.5 m/s 0.5 mm 1.4° 998.4 hPa 1.7 m/s 0.3° 996.0 hPa 8.8 m/s
23:00 0.0° 996.2 hPa 2.7 m/s 0.0 mm -1.1° 992.9 hPa 3.8 m/s 64.2 mm 0.0° 996.5 hPa 2.5 m/s 0.1 mm 0.2° 996.5 hPa 2.5 m/s 0.1° 995.2 hPa 5.2 m/s
 06:07     20:06    Daglengte: 13:59 Donderdag 02 Apr
02:00 -0.7° 994.1 hPa 3.9 m/s 22.1 mm -0.4° 990.8 hPa 4.8 m/s 65.5 mm -0.5° 994.2 hPa 4.2 m/s 0.5 mm -1.0° 994.7 hPa 3.4 m/s -0.5° 993.8 hPa 5.6 m/s
05:00 -1.1° 991.1 hPa 4.3 m/s 65.6 mm -0.8° 987.8 hPa 3.9 m/s 65.6 mm -1.1° 991.6 hPa 4.3 m/s -2.1° 991.5 hPa 5.3 m/s
08:00 -1.0° 988.1 hPa 5.1 m/s 67.1 mm 0.4° 985.5 hPa 3.8 m/s 67.1 mm -1.2° 988.5 hPa 5.3 m/s -2.2° 989.3 hPa 4.2 m/s
11:00 0.7° 983.4 hPa 5.3 m/s 35.5 mm 0.9° 983.0 hPa 5.4 m/s -1.6° 987.1 hPa 3.7 m/s 35.5 mm
14:00 1.8° 980.7 hPa 5.4 m/s 35.5 mm 2.0° 980.3 hPa 5.5 m/s -1.0° 985.1 hPa 4.2 m/s 35.5 mm
17:00 1.6° 977.8 hPa 4.9 m/s 35.5 mm 1.8° 977.2 hPa 4.8 m/s -0.5° 983.9 hPa 5.2 m/s 35.5 mm
20:00 1.3° 974.9 hPa 4.4 m/s 35.5 mm 1.6° 974.1 hPa 4.2 m/s -1.6° 983.7 hPa 6.3 m/s 35.5 mm
23:00 0.9° 973.2 hPa 3.7 m/s 35.5 mm 1.3° 972.2 hPa 3.5 m/s -3.6° 984.6 hPa 5.5 m/s 35.5 mm
 06:03     20:10    Daglengte: 14:07 Vrijdag 03 Apr
02:00 0.5° 971.5 hPa 3.0 m/s 35.5 mm 1.0° 970.2 hPa 2.9 m/s -4.5° 985.8 hPa 3.7 m/s 35.5 mm
05:00 0.4° 971.0 hPa 3.1 m/s 35.5 mm 0.9° 969.6 hPa 3.1 m/s -4.9° 986.8 hPa 2.8 m/s 35.5 mm
08:00 0.3° 970.6 hPa 3.3 m/s 35.5 mm 0.8° 969.0 hPa 3.4 m/s -4.6° 988.5 hPa 2.3 m/s 35.5 mm
11:00 0.9° 972.6 hPa 4.2 m/s 35.5 mm 1.3° 971.0 hPa 4.4 m/s -3.1° 989.7 hPa 1.8 m/s 35.5 mm
14:00 1.6° 974.6 hPa 5.2 m/s 35.5 mm 1.8° 973.1 hPa 5.4 m/s -0.8° 991.0 hPa 2.8 m/s 35.5 mm
17:00 1.6° 977.8 hPa 5.7 m/s 35.5 mm 1.6° 976.5 hPa 5.8 m/s 0.5° 992.5 hPa 4.7 m/s 35.5 mm
20:00 1.3° 981.0 hPa 6.1 m/s 37.1 mm 1.5° 979.8 hPa 6.1 m/s -1.0° 994.0 hPa 5.5 m/s 37.1 mm
23:00 1.0° 983.8 hPa 6.5 m/s 38.8 mm 1.2° 982.8 hPa 6.7 m/s -1.8° 995.9 hPa 4.7 m/s 38.8 mm
 05:59     20:13    Daglengte: 14:14 Zaterdag 04 Apr
02:00 0.6° 986.7 hPa 7.0 m/s 40.5 mm 0.9° 985.7 hPa 7.2 m/s -2.2° 998.2 hPa 4.3 m/s 40.5 mm
05:00 0.6° 988.7 hPa 6.6 m/s 42.5 mm 0.8° 987.7 hPa 6.7 m/s -1.5° 1000.7 hPa 6.1 m/s 42.5 mm
08:00 0.5° 990.7 hPa 6.5 m/s 44.2 mm 0.7° 989.6 hPa 6.1 m/s -1.8° 1003.4 hPa 10.4 m/s 44.2 mm
11:00 0.6° 993.9 hPa 7.0 m/s 45.0 mm 0.9° 992.8 hPa 6.6 m/s -2.1° 1006.1 hPa 11.0 m/s 45.0 mm
14:00 0.8° 997.0 hPa 7.5 m/s 45.9 mm 1.1° 995.9 hPa 7.1 m/s -2.3° 1008.6 hPa 11.4 m/s 45.9 mm
17:00 0.5° 998.7 hPa 6.0 m/s 47.0 mm 0.8° 997.7 hPa 5.5 m/s -2.3° 1010.2 hPa 11.7 m/s 47.0 mm
20:00 0.3° 1000.5 hPa 4.5 m/s 48.0 mm 0.5° 999.5 hPa 3.9 m/s -2.1° 1011.1 hPa 11.2 m/s 48.0 mm
23:00 -0.0° 1000.5 hPa 5.4 m/s 49.1 mm 0.2° 999.5 hPa 5.0 m/s -2.3° 1012.0 hPa 10.1 m/s 49.1 mm
 05:55     20:17    Daglengte: 14:22 Zondag 05 Apr
02:00 -0.3° 1000.5 hPa 6.1 m/s 49.7 mm -0.1° 999.5 hPa 6.1 m/s -2.7° 1011.9 hPa 6.3 m/s 49.7 mm
05:00 -0.7° 1001.3 hPa 5.5 m/s 50.0 mm -0.4° 1000.6 hPa 5.6 m/s -4.4° 1008.7 hPa 5.0 m/s 50.0 mm
08:00 -1.0° 1001.8 hPa 5.3 m/s 50.1 mm -0.7° 1001.7 hPa 5.1 m/s -4.4° 1003.4 hPa 8.0 m/s 50.1 mm
11:00 -0.1° 1002.6 hPa 6.5 m/s 50.3 mm 0.2° 1003.3 hPa 6.2 m/s -3.5° 994.4 hPa 9.3 m/s 50.3 mm
14:00 1.0° 1003.4 hPa 7.4 m/s 53.8 mm 1.1° 1004.9 hPa 7.4 m/s -0.2° 987.3 hPa 7.6 m/s 53.8 mm
17:00 1.1° 1002.7 hPa 6.7 m/s 56.2 mm 1.1° 1004.0 hPa 5.8 m/s 1.7° 988.5 hPa 17.2 m/s 56.2 mm
20:00 0.8° 1002.6 hPa 4.8 m/s 57.3 mm 1.0° 1003.0 hPa 4.1 m/s -1.0° 998.3 hPa 12.0 m/s 57.3 mm
23:00 0.7° 1004.8 hPa 4.8 m/s 58.5 mm 0.9° 1005.0 hPa 4.1 m/s -1.6° 1002.5 hPa 13.0 m/s 58.5 mm
 05:51     20:20    Daglengte: 14:29 Maandag 06 Apr
02:00 0.7° 1006.8 hPa 4.6 m/s 59.8 mm 0.9° 1006.9 hPa 4.1 m/s -2.1° 1005.5 hPa 10.6 m/s 59.8 mm
05:00 0.6° 1008.6 hPa 4.6 m/s 60.4 mm 0.8° 1008.7 hPa 4.2 m/s -1.7° 1007.9 hPa 9.4 m/s 60.4 mm
08:00 0.5° 1010.4 hPa 4.5 m/s 60.6 mm 0.7° 1010.5 hPa 4.2 m/s -1.5° 1009.5 hPa 8.3 m/s 60.6 mm
14:00 1.4° 1010.4 hPa 4.4 m/s 61.3 mm 1.6° 1010.5 hPa 4.3 m/s -1.0° 1009.9 hPa 5.7 m/s 61.3 mm
20:00 1.1° 1012.9 hPa 6.2 m/s 61.7 mm 1.4° 1013.4 hPa 6.7 m/s -2.6° 1006.9 hPa 1.2 m/s 61.7 mm
 05:46     20:24    Daglengte: 14:38 Dinsdag 07 Apr
02:00 0.3° 1013.3 hPa 4.7 m/s 61.8 mm 0.7° 1013.6 hPa 5.0 m/s -3.9° 1010.2 hPa 1.5 m/s 61.7 mm
08:00 0.1° 1016.4 hPa 4.3 m/s 61.8 mm 0.2° 1016.3 hPa 4.4 m/s -1.5° 1017.1 hPa 3.1 m/s 61.8 mm
14:00 1.8° 1017.0 hPa 3.4 m/s 61.8 mm 1.9° 1016.6 hPa 3.3 m/s 1.3° 1021.8 hPa 4.3 m/s 61.8 mm
20:00 2.3° 1008.3 hPa 7.0 m/s 62.1 mm 2.5° 1007.0 hPa 7.6 m/s 0.4° 1022.7 hPa 0.4 m/s 62.1 mm
 05:42     20:28    Daglengte: 14:46 Woensdag 08 Apr
02:00 1.3° 1013.8 hPa 4.2 m/s 62.1 mm 1.6° 1013.2 hPa 4.1 m/s -1.6° 1019.8 hPa 4.7 m/s 62.1 mm
08:00 0.5° 1014.7 hPa 3.8 m/s 62.1 mm 0.6° 1014.5 hPa 3.9 m/s -0.5° 1017.0 hPa 2.6 m/s 62.1 mm
14:00 1.4° 1016.5 hPa 2.2 m/s 62.1 mm 1.4° 1016.5 hPa 2.2 m/s 62.1 mm
20:00 1.2° 1016.1 hPa 3.2 m/s 62.2 mm 1.2° 1016.1 hPa 3.2 m/s 62.2 mm
 05:38     20:31    Daglengte: 14:53 Donderdag 09 Apr
02:00 -1.6° 1015.1 hPa 2.1 m/s 0.8 mm
08:00 -0.3° 1013.9 hPa 2.5 m/s 0.5 mm
14:00 1.8° 1013.5 hPa 1.7 m/s 0.5 mm
20:00 -0.2° 1013.2 hPa 1.8 m/s 0.6 mm
 05:34     20:35    Daglengte: 15:01 Vrijdag 10 Apr
02:00 -1.2° 1013.2 hPa 2.5 m/s 0.5 mm
08:00 -0.2° 1012.7 hPa 2.5 m/s 0.6 mm
14:00 2.2° 1013.3 hPa 1.8 m/s 0.6 mm
20:00 0.7° 1014.0 hPa 1.9 m/s 0.7 mm
 05:30     20:38    Daglengte: 15:08 Zaterdag 11 Apr
02:00 -0.2° 1015.4 hPa 3.2 m/s 0.5 mm
08:00 0.7° 1015.6 hPa 3.6 m/s 0.8 mm
14:00 2.6° 1016.2 hPa 3.5 m/s 0.7 mm
20:00 1.6° 1016.3 hPa 3.6 m/s 0.8 mm
 05:26     20:42    Daglengte: 15:16 Zondag 12 Apr
02:00 1.0° 1015.9 hPa 4.7 m/s 1.1 mm
08:00 1.6° 1014.9 hPa 4.3 m/s 1.0 mm
14:00 3.4° 1014.2 hPa 4.6 m/s 1.4 mm
20:00 2.7° 1012.7 hPa 4.7 m/s 1.8 mm
 05:22     20:46    Daglengte: 15:24 Maandag 13 Apr
02:00 2.1° 1012.7 hPa 4.1 m/s 1.7 mm
08:00 2.6° 1012.0 hPa 3.6 m/s 0.8 mm
14:00 4.1° 1011.4 hPa 3.0 m/s 0.9 mm
20:00 3.3° 1010.5 hPa 1.8 m/s 1.0 mm
 05:17     20:50    Daglengte: 15:33 Dinsdag 14 Apr
02:00 2.0° 1010.1 hPa 2.2 m/s 0.7 mm